Date String (YYYY-MM-DD hh:mm:ss) UTC,Instrument flags,absolute air pressure of the measurement (hPa),sample flow rate (lpm),inlet stack bypass flow (lpm),air temperature of the measurement (°C),ambient temperature measured by the external sensor (°C),aerosol sample conditioner tube jacket temperature (°C),OPC LED temperature (°C),internal box temperature (°C),relative humidity of the measurement (%),span deviation,mass concentration of particles derived from Lorenz-Mie calculation of OPC scattering (μg/m³),mass concentration of particles derived from Lorenz-Mie calculation of OPC scattering (μg/m³),mass concentration of particles derived from Lorenz-Mie calculation of OPC scattering (μg/m³)
DateTimeUTC,F1_M11,P_M11,Q1_M11,Q2_M11,T1_M11,T2_M11,T3_M11,T4_M11,T5_M11,U1_M11,ZSPAN_M11,X0_M11,X2_M11,X1_M11
2024-05-15 14:00:00,SystemResetWarning,0828.6,5.00,000.00,025.1,024.5,000.0,033.3,027.0,027.9,0000.0,0008.80,0005.28,0004.72
2024-05-15 14:01:00,SystemResetWarning,0828.6,4.99,000.00,025.2,024.6,000.0,033.3,027.0,027.9,0000.8,0008.59,0005.31,0004.75
2024-05-15 14:02:00,SystemResetWarning,0828.5,5.00,000.00,025.2,024.6,000.0,033.4,027.0,028.4,0001.1,0008.94,0005.34,0004.78
2024-05-15 14:03:00,SystemResetWarning,0828.6,5.00,000.00,025.2,024.7,000.0,033.4,027.1,028.4,0000.9,0009.36,0005.37,0004.80
2024-05-15 14:04:00,SystemResetWarning,0828.6,5.00,000.00,025.3,024.7,000.0,033.4,027.1,028.6,0000.0,0009.42,0005.40,0004.84
2024-05-15 14:05:00,SystemResetWarning,0828.5,5.00,000.00,025.3,024.7,000.0,033.4,027.1,028.2,0000.5,0009.53,0005.47,0004.88
2024-05-15 14:06:00,SystemResetWarning,0828.5,5.00,000.00,025.3,024.8,000.0,033.5,027.1,028.1,0001.6,0009.64,0005.53,0004.93
2024-05-15 14:07:00,SystemResetWarning,0828.5,5.00,000.00,025.4,024.8,000.0,033.5,027.2,028.6,0000.2,0009.66,0005.57,0004.95
2024-05-15 14:08:00,SystemResetWarning,0828.6,5.00,000.00,025.4,024.8,000.0,033.5,027.2,028.7,0000.0,0009.77,0005.63,0004.97
2024-05-15 14:09:00,SystemResetWarning,0828.6,5.00,000.00,025.4,024.9,000.0,033.5,027.2,028.8,0000.0,0009.85,0005.66,0004.99
2024-05-15 14:10:00,SystemResetWarning,0828.6,5.01,000.00,025.4,024.9,000.0,033.5,027.2,028.0,0000.0,0009.89,0005.68,0005.02
2024-05-15 14:11:00,SystemResetWarning,0828.5,4.99,000.00,025.5,024.9,000.0,033.6,027.3,028.0,0000.0,0010.04,0005.68,0005.02
2024-05-15 14:12:00,SystemResetWarning,0828.5,4.99,000.00,025.5,024.9,000.0,033.6,027.3,028.1,0000.0,0010.25,0005.67,0005.03
2024-05-15 14:13:00,SystemResetWarning,0828.5,5.01,000.00,025.5,024.9,000.0,033.6,027.3,028.1,0000.0,0010.81,0005.66,0005.04
2024-05-15 14:14:00,SystemResetWarning,0828.6,5.01,000.00,025.5,025.0,000.0,033.6,027.3,028.5,0000.0,0010.41,0005.63,0005.03
2024-05-15 14:15:00,SystemResetWarning,0828.6,4.99,000.00,025.5,025.0,000.0,033.7,027.4,028.5,0000.0,0010.54,0005.61,0005.02
2024-05-15 14:16:00,SystemResetWarning,0828.5,5.00,000.00,025.6,025.0,000.0,033.7,027.4,027.7,0000.0,0010.97,0005.59,0005.01
2024-05-15 14:17:00,SystemResetWarning,0828.5,4.99,000.00,025.6,025.0,000.0,033.7,027.4,027.5,0000.0,0010.83,0005.52,0004.96
2024-05-15 14:18:00,SystemResetWarning,0828.5,4.99,000.00,025.6,025.1,000.0,033.7,027.4,028.5,0000.0,0010.63,0005.44,0004.90
2024-05-15 14:19:00,SystemResetWarning,0828.6,5.00,000.00,025.6,025.1,000.0,033.8,027.4,028.5,0000.0,0010.33,0005.33,0004.82
2024-05-15 14:20:00,SystemResetWarning,0828.6,5.00,000.00,025.7,025.1,000.0,033.8,027.5,028.0,0000.0,0010.24,0005.27,0004.75
2024-05-15 14:21:00,SystemResetWarning,0828.5,4.99,000.00,025.6,024.3,000.0,033.8,027.0,027.5,0000.0,0010.32,0005.23,0004.68
2024-05-15 14:22:00,SystemResetWarning,0828.4,5.00,000.00,025.2,022.2,000.0,033.9,026.0,028.0,0000.0,0010.32,0005.19,0004.62
2024-05-15 14:23:00,SystemResetWarning,0828.4,5.01,000.00,024.8,021.6,000.0,033.8,025.5,028.5,0000.0,0009.97,0005.14,0004.54
2024-05-15 14:24:00,SystemResetWarning,0828.4,5.01,000.00,024.7,021.9,000.0,033.7,025.5,029.6,0000.3,0009.48,0005.15,0004.49
2024-05-15 14:25:00,SystemResetWarning,0828.5,4.99,000.00,024.6,022.3,000.0,033.5,025.8,029.0,0000.0,0009.18,0005.10,0004.43
2024-05-15 14:26:00,SystemResetWarning,0828.6,5.00,000.00,024.6,022.7,000.0,033.4,026.0,029.6,0000.1,0009.16,0005.04,0004.36
2024-05-15 14:27:00,SystemResetWarning,0828.6,4.99,000.00,024.7,023.0,000.0,033.3,026.2,029.8,0001.3,0009.11,0004.98,0004.28
2024-05-15 14:28:00,SystemResetWarning,0828.5,5.00,000.00,024.7,023.3,000.0,033.3,026.3,029.5,0000.8,0009.31,0004.94,0004.24
2024-05-15 14:29:00,SystemResetWarning,0828.5,5.00,000.00,024.7,023.5,000.0,033.2,026.4,028.9,0001.1,0009.34,0004.94,0004.23
2024-05-15 14:30:00,SystemResetWarning,0828.6,5.00,000.00,024.8,023.7,000.0,033.2,026.5,029.4,0001.1,0009.38,0004.96,0004.25
2024-05-15 14:31:00,SystemResetWarning,0828.6,5.00,000.00,024.8,023.8,000.0,033.2,026.5,029.7,0000.6,0009.41,0004.95,0004.24
2024-05-15 14:32:00,SystemResetWarning,0828.6,5.01,000.00,024.8,024.0,000.0,033.2,026.6,029.3,0000.2,0009.25,0004.91,0004.23
2024-05-15 14:33:00,SystemResetWarning,0828.6,4.99,000.00,024.9,024.1,000.0,033.2,026.7,029.7,0000.5,0009.32,0004.86,0004.22
2024-05-15 14:34:00,SystemResetWarning,0828.6,5.00,000.00,024.9,024.2,000.0,033.2,026.7,028.9,0001.0,0009.32,0004.84,0004.21
2024-05-15 14:35:00,SystemResetWarning,0828.6,5.01,000.00,025.0,024.3,000.0,033.2,026.8,029.2,0000.9,0009.21,0004.81,0004.22
2024-05-15 14:36:00,SystemResetWarning,0828.6,5.00,000.00,025.0,024.3,000.0,033.2,026.8,030.0,0000.7,0009.29,0004.83,0004.23
2024-05-15 14:37:00,SystemResetWarning,0828.6,5.01,000.00,025.0,024.4,000.0,033.2,026.8,029.6,0000.6,0009.31,0004.85,0004.27
2024-05-15 14:38:00,SystemResetWarning,0828.5,4.98,000.00,025.1,024.5,000.0,033.3,026.9,029.8,0000.0,0008.70,0004.86,0004.30
2024-05-15 14:39:00,SystemResetWarning,0828.5,4.99,000.00,025.1,024.5,000.0,033.3,026.9,030.6,0000.0,0008.46,0004.85,0004.31
2024-05-15 14:40:00,SystemResetWarning,0828.6,5.02,000.00,025.1,024.6,000.0,033.3,026.9,029.9,0000.3,0008.36,0004.83,0004.29
2024-05-15 14:41:00,SystemResetWarning,0828.6,5.00,000.00,025.2,024.6,000.0,033.3,027.0,029.3,0000.0,0008.41,0004.85,0004.29
2024-05-15 14:42:00,SystemResetWarning,0828.6,4.98,000.00,025.2,024.7,000.0,033.3,027.0,029.5,0000.0,0008.40,0004.86,0004.30
2024-05-15 14:43:00,SystemResetWarning,0828.6,5.01,000.00,025.2,024.7,000.0,033.4,027.1,029.0,0000.0,0008.44,0004.90,0004.33
2024-05-15 14:44:00,SystemResetWarning,0828.6,5.00,000.00,025.3,024.7,000.0,033.4,027.1,029.5,0000.0,0008.24,0004.91,0004.35
2024-05-15 14:45:00,SystemResetWarning,0828.6,5.00,000.00,025.3,024.8,000.0,033.4,027.1,030.3,0001.0,0008.20,0004.90,0004.35
2024-05-15 14:46:00,SystemResetWarning,0828.6,5.00,000.00,025.3,024.8,000.0,033.4,027.2,030.2,0000.6,0008.11,0004.84,0004.33
2024-05-15 14:47:00,SystemResetWarning,0828.6,5.00,000.00,025.4,024.8,000.0,033.5,027.2,030.1,0000.9,0007.94,0004.81,0004.31
2024-05-15 14:48:00,SystemResetWarning,0828.6,5.00,000.00,025.4,024.8,000.0,033.5,027.2,028.9,0000.8,0007.93,0004.78,0004.30
2024-05-15 14:49:00,SystemResetWarning,0828.6,5.00,000.00,025.4,024.9,000.0,033.5,027.2,029.6,0001.2,0008.49,0004.79,0004.29
2024-05-15 14:50:00,SystemResetWarning,0828.6,5.00,000.00,025.4,024.9,000.0,033.5,027.2,030.4,0000.0,0008.86,0004.84,0004.30
2024-05-15 14:51:00,SystemResetWarning,0828.6,5.00,000.00,025.5,024.9,000.0,033.5,027.3,030.2,0000.2,0008.86,0004.86,0004.32
2024-05-15 14:52:00,SystemResetWarning,0828.6,5.00,000.00,025.4,024.0,000.0,033.6,026.7,030.4,0001.3,0008.75,0004.82,0004.32
2024-05-15 14:53:00,SystemResetWarning,0828.4,5.00,000.00,025.0,022.1,000.0,033.7,025.7,031.0,0001.2,0008.77,0004.82,0004.34
2024-05-15 14:54:00,SystemResetWarning,0828.4,5.01,000.00,024.7,021.6,000.0,033.6,025.4,031.0,0000.0,0008.89,0004.83,0004.34
2024-05-15 14:55:00,SystemResetWarning,0828.5,5.01,000.00,024.5,022.0,000.0,033.5,025.5,031.2,0000.0,0008.99,0004.86,0004.35
2024-05-15 14:56:00,SystemResetWarning,0828.6,5.00,000.00,024.5,022.3,000.0,033.3,025.7,031.6,0000.0,0008.97,0004.88,0004.38
2024-05-15 14:57:00,SystemResetWarning,0828.6,5.00,000.00,024.5,022.7,000.0,033.2,026.0,031.2,0000.0,0009.08,0004.95,0004.42
2024-05-15 14:58:00,SystemResetWarning,0828.5,5.00,000.00,024.5,023.0,000.0,033.2,026.1,031.5,0000.0,0009.12,0005.00,0004.46
2024-05-15 14:59:00,SystemResetWarning,0828.6,4.98,000.00,024.6,023.2,000.0,033.1,026.2,031.9,0000.0,0009.02,0005.04,0004.52
